Regional Weather Roundup
Issued by NWS

Home | Current Version | Previous Version | Graphics & Text | Print | Product List | Glossary On
Versions: 1 2 3 4 5 6 7 8 9 10 11 12 13 14 15 16 17 18 19 20 21 22 23 24 25 26 27 28 29 30 31 32 33 34 35 36 37 38 39 40 41 42 43 44 45 46 47 48 49 50
340
ASUS43 KIND 281500
RWRIN

WEATHER ROUNDUP FOR INDIANA
NATIONAL WEATHER SERVICE INDIANAPOLIS IN
1100 AM EDT SUN MAY 28 2017

NOTE: "FAIR" INDICATES FEW OR NO CLOUDS BELOW 12,000 FEET WITH NO
SIGNIFICANT WEATHER AND/OR OBSTRUCTIONS TO VISIBILITY.

* - STATION DOES NOT REPORT WEATHER SUCH AS PRECIPITATION OR FOG.

+ - STATION NOT QUALITY CONTROLLED BY THE NATIONAL WEATHER SERVICE.
    USE DATA WITH CAUTION...ESPECIALLY DEWPOINT AND RELATIVE
    HUMIDITY OBSERVATIONS.

INZ001>003-010>013-019-020-281600-
NORTHWEST INDIANA

CITY           SKY/WX    TMP DP  RH WIND       PRES   REMARKS
GARY /AIRPORT/ CLOUDY    73  63  68 W7        29.73F
MICHIGAN CITY+ MOSUNNY   73  64  73 SE5       29.72F
MONTICELLO +   CLOUDY    69  64  85 SW7       29.72S
RENSSELAER +   MOSUNNY   70  63  78 CALM      29.73S

$$

LMZ046-743>745-281600-
SOUTHERN LAKE MICHIGAN

STATION/POSITION TIME  TEMP    WIND        PRES    WAVE
                       AIR SEA DIR/SP/G            HT
                 (UTC) (F)     (DEG/KT/KT) (MB)    (FT)
BURNS HARBOR     1430   61     350/  4/  5 1007.5S
MICHIGAN CITY    1430   67     330/  3/  4   N/A
5NW MICH CITY    1440   59 57   10/  4/  4   N/A     0

$$

INZ004-005-014>016-021>024-281600-
NORTH CENTRAL INDIANA

CITY           SKY/WX    TMP DP  RH WIND       PRES   REMARKS
GOSHEN         CLOUDY    72  60  66 E5        29.73F
PERU/GRISSOM   CLOUDY    68  68 100 SW8       29.72F
SOUTH BEND     MOSUNNY   69  61  75 CALM      29.73F

$$

INZ006>009-017-018-025>027-281600-
NORTHEAST INDIANA

CITY           SKY/WX    TMP DP  RH WIND       PRES   REMARKS
ANGOLA *+      MOSUNNY   68  63  83 SE6       29.74F
FORT WAYNE     CLOUDY    70  62  76 SE6       29.73F
KENDALLVILLE + CLOUDY    70  60  72 E3        29.74F

$$

INZ028-029-035-036-043>045-051>053-281600-
WEST CENTRAL INDIANA

CITY           SKY/WX    TMP DP  RH WIND       PRES   REMARKS
LAFAYETTE      CLOUDY    70  65  84 SW6       29.72S
TERRE HAUTE    MOSUNNY   73  61  65 SW18G24   29.77R

$$

INZ030>032-037>040-046>048-054>057-064-065-281600-
CENTRAL INDIANA

CITY           SKY/WX    TMP DP  RH WIND       PRES   REMARKS
COLUMBUS       MOSUNNY   72  59  64 SW12      29.77F
INDIANAPOLIS   PTSUNNY   71  63  75 SW13      29.76S
-EAGLE CREEK   CLOUDY    70  61  73 SW8       29.75S
KOKOMO +       CLOUDY    70  65  84 S9        29.74S
SHELBYVILLE    PTSUNNY   71  61  70 SW13      29.75F

$$

INZ033-034-041-042-049-050-058-059-281600-
EAST CENTRAL INDIANA

CITY           SKY/WX    TMP DP  RH WIND       PRES   REMARKS
MUNCIE         CLOUDY    70  62  76 SW9       29.74S
RICHMOND +     CLOUDY    68  61  77 SW13      29.78F

$$

INZ060-061-067>069-081>083-085>088-281600-
SOUTHWEST INDIANA

CITY           SKY/WX    TMP DP  RH WIND       PRES   REMARKS
EVANSVILLE     CLOUDY    72  61  68 W17G24    29.83S
HUNTINGBURG *+ CLOUDY    69  63  81 SW13G25   29.83S

$$

INZ062-063-066-070>080-084-089>092-281600-
SOUTH CENTRAL AND SOUTHEAST INDIANA

CITY           SKY/WX    TMP DP  RH WIND       PRES   REMARKS
BLOOMINGTON    CLOUDY    70  60  70 W13G22    29.79R
MADISON *+     CLOUDY    70  61  73 SW10      29.83R
SEYMOUR +      CLOUDY    72  63  73 SW16G22   29.80R

$$





USA.gov is the U.S. government's official web portal to all federal, state and local government web resources and services.